Regional Weather Roundup
Issued by NWS Little Rock, AR

Home | Current Version | Previous Version | Graphics & Text | Print | Product List | Glossary On
Versions: 1 2 3 4 5 6 7 8 9 10 11 12 13 14 15 16 17 18 19 20 21 22 23 24 25 26 27 28 29 30 31 32 33 34 35 36 37 38 39 40 41 42 43 44 45 46 47 48 49 50
761
ASUS44 KLZK 071505
RWRLZK

WEATHER ROUNDUP FOR ARKANSAS
NATIONAL WEATHER SERVICE LITTLE ROCK AR
900 AM CST SUN FEB 07 2016

NOTE: "FAIR" INDICATES FEW OR NO CLOUDS BELOW 12,000 FEET WITH NO
SIGNIFICANT WEATHER AND/OR OBSTRUCTIONS TO VISIBILITY.

ARZ001-003-010-029-071600-
NORTHWEST ARKANSAS

CITY           SKY/WX    TMP DP  RH WIND       PRES   REMARKS
FAYETTEVILLE   SUNNY     43  33  68 SW13G22   30.14F
FORT SMITH     SUNNY     37  29  72 NE3       30.20S
HARRISON       SUNNY     47  28  47 W12       30.10F
BENTONVILLE    MOSUNNY  N/A N/A N/A SW12G17   30.13F
ROGERS         MOSUNNY   41  32  70 SW13      30.13R
SILOAM SPGS    MOSUNNY   39  28  65 SW12G18   30.15R
HIGHFILL       MOSUNNY   40  33  76 SW14      30.12S
SPRINGDALE     SUNNY     43  32  65 SW12G23   30.16F
$$

ARZ004-005-016-071600-
NORTH CENTRAL ARKANSAS

CITY           SKY/WX    TMP DP  RH WIND       PRES   REMARKS
BATESVILLE     SUNNY     45  27  49 SW5       30.17F
FLIPPIN        SUNNY     39  23  52 CALM      30.11S
MTN HOME       SUNNY     42  28  57 VRB6      30.11F
$$

ARZ040-041-071600-
WEST CENTRAL ARKANSAS

CITY           SKY/WX    TMP DP  RH WIND       PRES   REMARKS
MENA           SUNNY     45  36  70 W9        30.21S
MOUNT IDA      SUNNY     35  27  72 CALM      30.19R
$$

ARZ009-017-025-026-028-071600-
NORTHEAST ARKANSAS

CITY           SKY/WX    TMP DP  RH WIND       PRES   REMARKS
CORNING        FAIR      43  30  61 SW10      30.15F
JONESBORO      SUNNY     41  29  62 SW10      30.18S
NEWPORT        SUNNY     42  32  68 S10       30.19F
WALNUT RIDGE   SUNNY     39  28  65 SW12      30.16F
BLYTHEVILLE    SUNNY     45  32  60 S7        30.19R
$$

ARZ022-023-033-042-044-071600-
CENTRAL ARKANSAS

CITY           SKY/WX    TMP DP  RH WIND       PRES   REMARKS
LITTLE ROCK    SUNNY     40  27  59 SW7       30.22S
N LITTLE ROCK  SUNNY     46  31  56 W7        30.22S
JACKSONVILLE   SUNNY     37  29  72 CALM      30.20S
SEARCY         SUNNY     37  28  70 SW5       30.22S
HOT SPRINGS    SUNNY     37  29  72 W3        30.23R
RUSSELLVILLE   SUNNY     35  27  72 CALM      30.18F
CLINTON        FAIR      30  25  80 CALM      30.19F HAZE
$$

ARZ036-071600-
EAST ARKANSAS

CITY           SKY/WX    TMP DP  RH WIND       PRES   REMARKS
WEST MEMPHIS   SUNNY     41  33  73 S8        30.19F
$$

ARZ050-053-066-070-073-071600-
SOUTHWEST ARKANSAS

CITY           SKY/WX    TMP DP  RH WIND       PRES   REMARKS
ARKADELPHIA    FAIR      37  32  82 CALM      30.27R
CAMDEN         MIX PCPN  37  32  81 S5        30.26F
TEXARKANA      SUNNY     43  35  73 W5        30.26R
EL DORADO      SUNNY     40  34  79 S3        30.27F
DE QUEEN       SUNNY     33  31  92 CALM      30.24S
$$

ARZ056-057-069-071600-
SOUTHEAST ARKANSAS

CITY           SKY/WX    TMP DP  RH WIND       PRES   REMARKS
PINE BLUFF     SUNNY     40  30  67 SW6       30.23F
STUTTGART      SUNNY     45  32  61 SW6       30.22S
MONTICELLO     SUNNY     44  32  62 W6        30.25F

$$






USA.gov is the U.S. government's official web portal to all federal, state and local government web resources and services.